Location: Charbonni�res
(45.9952°N, 2.9982°E)
Time: 18:14:27
(UTC+00:00)

ATLAS 3B R/B - Pass Details

Date: 29 November 2020
Orbit: 1013 x 1182 km, 63.8° (Epoch: 08 January)

Event Time Altitude Azimuth Distance (km) Brightness Sun altitude
Exits shadow 05:17:52 22° 317° (NW) 2,197 3.9 -18.4°
Maximum altitude 05:22:41 74° 236° (WSW) 1,155 2.7 -17.6°
Drops below altitude 10° 05:29:52 10° 153° (SSE) 3,025 5.6 -16.4°
Sets 05:32:36 0° 152° (SSE) 4,003 6.4 -16.0°
